Location: Newark
(33.4453°N, 112.0669°W)
Time: 21:40:36
(UTC+00:00)

Vanguard 2 Rocket - All Passes

Search period start: 28 February 2020 00:00
Search period end: 09 March 2020 00:00
Orbit: 553 x 3327 km, 32.9° (Epoch: 27 February)

Date Brightness Start Highest point End Pass type
(mag) Time Alt. Az. Time Alt. Az. Time Alt. Az.
28 Feb - 01:55:01 10° WSW 02:15:39 79° SSE 02:30:54 10° E visible
28 Feb - 04:14:34 10° W 04:33:39 88° S 04:45:04 10° E visible
28 Feb - 06:34:50 10° WNW 06:49:24 60° SSW 06:57:32 10° SE visible
28 Feb - 08:55:55 10° W 09:01:47 17° SW 09:06:10 10° S night (unlit)
28 Feb - 20:36:08 10° SE 20:40:28 11° SE 20:45:00 10° ESE daylight
28 Feb - 22:39:23 10° SSW 22:55:48 40° SE 23:13:06 10° E daylight
29 Feb - 00:53:16 10° WSW 01:13:25 72° SSE 01:30:24 10° E daylight
29 Feb - 03:11:38 10° W 03:31:58 88° S 03:45:20 10° E visible
29 Feb - 05:31:53 10° W 05:48:57 74° SSW 05:58:38 10° ESE visible
29 Feb - 07:52:18 10° W 08:02:39 31° SW 08:09:12 10° SSE visible
29 Feb - 21:40:34 10° S 21:54:28 30° SE 22:10:11 10° E daylight
29 Feb - 23:52:15 10° SW 00:11:11 62° SSE 00:29:25 10° ENE daylight
01 Mar - 02:09:05 10° WSW 02:29:50 86° S 02:45:12 10° E visible
01 Mar - 04:28:51 10° W 04:47:54 83° SSW 04:59:20 10° ESE visible
01 Mar - 06:49:10 10° WNW 07:03:03 46° SW 07:11:10 10° SE visible
01 Mar - 20:43:11 10° S 20:53:35 20° SE 21:05:36 10° E daylight
01 Mar - 22:52:00 10° SW 23:09:12 52° SSE 23:27:48 10° ENE daylight
02 Mar - 01:07:05 10° WSW 01:27:27 81° SSE 01:44:41 10° E daylight
02 Mar - 03:25:56 10° W 03:46:16 88° S 03:59:37 10° E visible
02 Mar - 05:46:07 10° WNW 06:02:51 62° SSW 06:12:34 10° SE visible
02 Mar - 08:07:41 10° W 08:15:49 20° SW 08:21:37 10° S visible
02 Mar - 19:50:59 10° SE 19:53:07 10° SE 19:55:20 10° ESE daylight
02 Mar - 21:52:35 10° SSW 22:07:38 40° SE 22:25:27 10° E daylight
03 Mar - 00:05:47 10° WSW 00:25:00 73° SSE 00:43:42 10° E daylight
03 Mar - 02:23:19 10° W 02:44:07 89° S 02:59:31 10° E visible
03 Mar - 04:43:06 10° W 05:02:00 74° SSW 05:13:27 10° ESE visible
03 Mar - 07:03:48 10° W 07:16:24 34° SW 07:24:22 10° SSE visible
03 Mar - 20:54:07 10° S 21:06:36 29° SE 21:22:05 10° E daylight
03 Mar - 23:05:12 10° SW 23:22:46 63° SSE 23:42:12 10° ENE daylight
04 Mar - 01:21:11 10° WSW 01:41:38 86° S 01:58:59 10° E visible
04 Mar - 03:40:13 10° W 04:00:30 83° SSW 04:13:52 10° ESE visible
04 Mar - 06:00:27 10° WNW 06:16:28 49° SW 06:26:09 10° SE visible
04 Mar - 08:25:13 10° WSW 08:28:48 12° SW 08:31:55 10° SW night (unlit)
04 Mar - 19:57:06 10° SSE 20:06:06 19° SE 20:17:03 10° E daylight
04 Mar - 22:05:21 10° SW 22:20:56 52° SE 22:40:07 10° ENE daylight
05 Mar - 00:19:41 10° WSW 00:39:01 81° SSE 00:57:58 10° E daylight
05 Mar - 02:37:37 10° W 02:58:25 87° S 03:13:49 10° E visible
05 Mar - 04:57:21 10° WNW 05:15:51 63° SSW 05:27:19 10° SE visible
05 Mar - 07:19:05 10° W 07:29:30 23° SW 07:36:48 10° S visible
05 Mar - 21:06:17 10° SSW 21:19:41 40° SE 21:37:19 10° E daylight
05 Mar - 23:18:50 10° WSW 23:36:33 74° SSE 23:56:29 10° E daylight
06 Mar - 01:35:27 10° W 01:55:55 89° S 02:13:17 10° E visible
06 Mar - 03:54:28 10° W 04:14:34 75° SSW 04:27:57 10° ESE visible
06 Mar - 06:15:04 10° W 06:29:46 36° SW 06:39:17 10° SSE visible
06 Mar - 20:08:08 10° S 20:19:03 28° SE 20:33:34 10° E daylight
06 Mar - 22:18:40 10° SW 22:34:28 64° SSE 22:54:29 10° ENE daylight
07 Mar - 00:33:49 10° WSW 00:53:13 87° S 01:12:16 10° E daylight
07 Mar - 02:51:55 10° W 03:12:38 83° SSW 03:28:02 10° ESE visible
07 Mar - 05:11:41 10° WNW 05:29:25 50° SW 05:40:51 10° SE visible
07 Mar - 07:35:59 10° W 07:42:27 14° SW 07:47:42 10° SSW visible
07 Mar - 19:11:32 10° SSE 19:18:57 17° SE 19:28:11 10° E daylight
07 Mar - 21:19:12 10° SW 21:32:57 52° SE 21:51:56 10° ENE daylight
07 Mar - 23:32:47 10° WSW 23:50:34 82° SSE 00:10:45 10° E daylight
08 Mar - 01:49:46 10° W 02:10:13 87° S 02:27:35 10° E visible
08 Mar - 04:08:43 10° WNW 04:28:23 64° SSW 04:41:47 10° SE visible
08 Mar - 06:30:17 10° W 06:42:49 26° SW 06:51:42 10° S visible
08 Mar - 20:20:27 10° SSW 20:32:05 39° SE 20:48:47 10° E daylight
08 Mar - 22:32:24 10° WSW 22:48:15 74° SSE 23:08:45 10° E daylight
